Flag for Switzerland Weather past 2 weeks in Lancy, Geneva, Switzerland

41 °F

Drizzle. More clouds than sun.

Feels Like: 37 °F
Forecast: 37 / 49 °F
Wind: 6 mph from Southwest

Location: Geneva Cointrin Airport

Current Time: Nov 29, 2015 at 5:40:31 PM

Latest Report: Nov 29, 2015 at 4:50 PM

Visibility: 4 mi

Pressure: 30.42 "Hg

Humidity: 87%

Dew point: 37 °F

Location of LancyLocation

Historic Weather in Lancy — Graph


Lancy temperature yesterday

Maximum temperature yesterday: 43 °F (at 2:20 PM)
Minimum temperature yesterday: 28 °F (at 11:20 PM)
Average temperature yesterday: 35 °F

Past Weeks' High & Low Weather Summary

High64 °F (Nov 16, 3:50 PM)100% (Nov 22, 1:20 AM)30.42 "Hg (Nov 22, 1:20 AM)
Low25 °F (Nov 24, 7:20 AM)39% (Nov 15, 12:20 PM)29.50 "Hg (Nov 21, 12:20 PM)
Average43 °F76%30.09 "Hg
* Reported Nov 14 4:20 PM — Nov 29 4:20 PM, Lancy, Weather by CustomWeather, © 2015

Note: Actual official high and low records may vary slightly from our data, if they occured in-between our weather recording intervals... More about our weather records


Lancy weather history for previous 24 hours

Time TempWeatherWind HumidityBarometerVisibility
4:20 PM
Sun, Nov 29
41 °FSprinkles. Partly sunny.3 mph87%30.42 "Hg5 mi
3:50 PM41 °FSprinkles. Partly sunny.9 mph87%30.39 "Hg4 mi
3:20 PM41 °FPartly sunny.10 mph87%30.39 "HgN/A
2:50 PM41 °FMostly cloudy.8 mph87%30.39 "HgN/A
2:20 PM41 °FSprinkles. Mostly cloudy.6 mph87%30.39 "HgN/A
1:50 PM39 °FSprinkles. Mostly cloudy.10 mph87%30.36 "HgN/A
1:20 PM39 °FMostly cloudy.9 mph87%30.39 "HgN/A
12:50 PM39 °FLight rain. Mostly cloudy.7 mph87%30.39 "HgN/A
12:20 PM39 °FLight rain. Mostly cloudy.8 mph87%30.39 "HgN/A
11:50 AM39 °FLight rain. Mostly cloudy.7 mph87%30.39 "HgN/A
11:20 AM37 °FLight rain. Overcast.8 mph87%30.39 "HgN/A
10:50 AM37 °FLight rain. Overcast.7 mph87%30.39 "HgN/A
10:20 AM37 °FLight rain. Overcast.5 mph87%30.39 "HgN/A
9:50 AM36 °FLight rain. Overcast.7 mph93%30.39 "HgN/A
9:20 AM36 °FLight rain. Overcast.7 mph93%30.39 "HgN/A
8:50 AM36 °FLight rain. Overcast.6 mph87%30.39 "HgN/A
7:50 AM37 °FLight rain. Passing clouds.7 mph81%30.36 "HgN/A
6:50 AM36 °FLight snow. Passing clouds.6 mph87%30.33 "HgN/A
6:20 AM34 °FLight snow. Passing clouds.3 mph87%30.33 "HgN/A
5:50 AM34 °FPassing clouds.3 mph87%30.33 "HgN/A
5:20 AM32 °FPassing clouds.2 mph93%30.33 "HgN/A
4:50 AM32 °FPassing clouds.2 mph93%30.33 "HgN/A
4:20 AM32 °FPassing clouds.1 mph87%30.33 "HgN/A
3:50 AM32 °FPassing clouds.2 mph93%30.33 "HgN/A
3:20 AM32 °FPassing clouds.3 mph93%30.33 "HgN/A
2:50 AM32 °FPartly cloudy.2 mph93%30.33 "HgN/A
1:50 AM30 °FClear.5 mph93%30.33 "Hg10 mi
1:20 AM28 °FPassing clouds.3 mph93%30.33 "HgN/A
12:50 AM28 °FClear.1 mph93%30.33 "Hg10 mi
12:20 AM28 °FClear.2 mph93%30.30 "Hg10 mi
11:50 PM
Sat, Nov 28
28 °FClear.1 mph93%30.30 "Hg10 mi
11:20 PM28 °FClear.2 mph93%30.30 "Hg10 mi
10:50 PM30 °FClear.2 mph93%30.30 "Hg10 mi
10:20 PM30 °FClear.1 mph93%30.30 "Hg10 mi
9:20 PM32 °FClear.1 mph87%30.27 "Hg10 mi
8:50 PM34 °FClear.3 mph87%30.27 "Hg10 mi
8:20 PM34 °FPassing clouds.3 mph87%30.27 "HgN/A
7:50 PM34 °FPassing clouds.5 mph87%30.27 "HgN/A
7:20 PM36 °FPassing clouds.2 mph87%30.24 "HgN/A
6:50 PM37 °FPassing clouds.3 mph81%30.24 "HgN/A
6:20 PM39 °FPassing clouds.5 mph75%30.24 "HgN/A
5:50 PM39 °FPassing clouds.5 mph81%30.24 "HgN/A
5:20 PM39 °FPassing clouds.7 mph81%30.21 "HgN/A
Weather by CustomWeather, © 2015

See weather overviewHow to use our weather pages